User: anonymous   Login
Location: Brivio
(45.7333°N, 9.4500°E)
Time: 22:35:36
(UTC+00:00)
Language:

CSL-04 Rocket - Orbit

View from above orbital plane
View from above orbital plane
View from above satellite
View from above satellite

Ground track
Ground track

The orbit data is extracted from the following two-line orbital elements,

1 25732U 99025C   19339.48142726 -.00000022  00000-0  11447-4 0  9999
2 25732  98.9648   1.6669 0038062  47.2207  86.1256 14.17670612 64333
Epoch (UTC): 05 December 2019 11:33:15
Eccentricity: 0.0038062
inclination: 98.9648°
perigee height: 806 km
apogee height: 860 km
right ascension of ascending node: 1.6669°
argument of perigee: 47.2207°
revolutions per day: 14.17670612
mean anomaly at epoch: 86.1256°
orbit number at epoch: 6433

The dashed part of the orbit path shows where the satellite is in the earth's shadow,  

DLR